Weather History for KCKB - October, 2012

Change the Weather History Date:

Sunday, October 7, 2012

  Actual Average (KMGW) Record (KMGW)
Temperature  
Mean Temperature 45 °F 57 °F  
Max Temperature 53 °F 68 °F 87 °F (2007)
Min Temperature 37 °F 46 °F 27 °F (1964)
Degree Days  
Heating Degree Days 20 9  
Month to date heating degree days 54  
Since 1 July heating degree days 151  
Cooling Degree Days 0 1  
Month to date cooling degree days 7  
Year to date cooling degree days 808  
Moisture  
Dew Point 41 °F    
Average Humidity 84    
Maximum Humidity 96    
Minimum Humidity 66    
Precipitation  
Precipitation 0.01 in 0.09 in - ()
Month to date precipitation 0.66  
Year to date precipitation 33.34  
Sea Level Pressure  
Sea Level Pressure 30.10 in    
Wind  
Wind Speed 2 mph (WNW)    
Max Wind Speed 10 mph    
Max Gust Speed -    
Visibility 9 miles    
Events Rain    
T = Trace of Precipitation, MM = Missing Value Source: NWS Daily Summary

Daily Weather History Graph

Daily Weather History Graph

Search for Another Location

Airport or City:

Trip Planner

Search our weather history database for the weather conditions in past years. The results will help you decide how hot, cold, wet, or windy it might be!

Date:

Astronomy

Oct. 07, 2012 Rise Set
Actual Time 7:23 AM EDT 6:53 PM EDT
Civil Twilight 6:56 AM EDT 7:20 PM EDT
Nautical Twilight 6:25 AM EDT 7:51 PM EDT
Astronomical Twilight 5:54 AM EDT 8:22 PM EDT
Moon No Moon Rise 1:57 PM EDT (10/7)
Length of Visible Light 12h 23m
Length of Day
11h 30m
Waning Gibbous, 56% of the Moon is Illuminated
Oct 7
Waning Gibbous
Oct 8
Last Quarter
Oct 15
New
Oct 21
First Quarter
Oct 29
Full

Hourly Weather History & Observations

Time (EDT) Temp. Windchill Dew Point Humidity Pressure Visibility Wind Dir Wind Speed Gust Speed Precip Events Conditions
12:53 AM 43.0 °F - 41.0 °F 93% 30.08 in 10.0 mi Calm Calm - N/A   Clear
1:53 AM 45.0 °F 43.5 °F 41.0 °F 86% 30.06 in 10.0 mi NNE 3.5 mph - N/A   Clear
3:53 AM 45.0 °F - 42.1 °F 90% 30.06 in 10.0 mi Calm Calm - N/A   Mostly Cloudy
4:53 AM 45.0 °F - 42.1 °F 90% 30.06 in 10.0 mi Calm Calm - N/A   Overcast
5:53 AM 45.0 °F 43.5 °F 42.1 °F 90% 30.05 in 10.0 mi North 3.5 mph - N/A   Overcast
6:53 AM 45.0 °F 43.5 °F 42.1 °F 90% 30.05 in 10.0 mi NE 3.5 mph - N/A   Overcast
7:53 AM 45.0 °F - 42.1 °F 90% 30.06 in 10.0 mi Calm Calm - N/A   Overcast
8:53 AM 46.0 °F - 42.1 °F 86% 30.08 in 10.0 mi Calm Calm - N/A   Overcast
9:53 AM 46.9 °F - 43.0 °F 86% 30.09 in 10.0 mi Calm Calm - N/A   Overcast
10:53 AM 48.9 °F - 44.1 °F 83% 30.07 in 10.0 mi ESE 4.6 mph - N/A   Overcast
11:53 AM 51.1 °F - 44.1 °F 77% 30.08 in 10.0 mi Calm Calm - N/A   Overcast
12:53 PM 53.1 °F - 44.1 °F 71% 30.08 in 10.0 mi West 4.6 mph - N/A   Overcast
1:53 PM 52.0 °F - 42.1 °F 69% 30.06 in 10.0 mi WSW 5.8 mph - N/A   Overcast
2:53 PM 51.1 °F - 39.9 °F 66% 30.07 in 10.0 mi WNW 10.4 mph - 0.01 in   Overcast
3:53 PM 46.9 °F - 41.0 °F 80% 30.10 in 3.0 mi West 3.5 mph - N/A Rain Light Rain
4:53 PM 46.0 °F 43.9 °F 39.0 °F 76% 30.12 in 10.0 mi West 4.6 mph - N/A   Overcast
5:53 PM 46.9 °F - 39.0 °F 74% 30.14 in 10.0 mi WNW 3.5 mph - N/A   Overcast
6:53 PM 46.0 °F 44.8 °F 39.0 °F 76% 30.14 in 10.0 mi West 3.5 mph - N/A   Overcast
7:53 PM 44.1 °F - 37.9 °F 79% 30.15 in 10.0 mi Calm Calm - N/A   Clear
8:53 PM 41.0 °F - 37.0 °F 86% 30.18 in 10.0 mi Calm Calm - N/A   Clear
9:53 PM 37.9 °F - 36.0 °F 93% 30.19 in 9.0 mi Calm Calm - N/A   Clear
10:53 PM 37.0 °F - 36.0 °F 96% 30.19 in 7.0 mi Calm Calm - N/A   Clear
11:53 PM 39.0 °F - 37.9 °F 96% 30.20 in 7.0 mi Calm Calm - N/A   Overcast